This is the latest recevied weather packets stored in our database for station/object K3RUP-1. If no packets are shown the sender has not sent any weather packets the latest 10 day(s).
| Time | Temp. | Humidity | Pressure | Rain* | Wind** | Luminosity | Snow |
|---|---|---|---|---|---|---|---|
| 1777894172 | 11.11° C | 71% | 1014.6 hPa | 0 mm | - | 56 W/m² | - |
| 1777893869 | 10.56° C | 74% | 1014.7 hPa | 0 mm | - | 41 W/m² | - |
| 1777893566 | 10.56° C | 75% | 1014.5 hPa | 0 mm | - | 32 W/m² | - |
| 1777893262 | 10.56° C | 75% | 1014.6 hPa | 0 mm | - | 28 W/m² | - |
| 1777892959 | 10.56° C | 74% | 1014.6 hPa | 0 mm | - | 20 W/m² | - |
| 1777892655 | 10.56° C | 76% | 1014.6 hPa | 0 mm | - | 16 W/m² | - |
| 1777892351 | 10.56° C | 76% | 1014.8 hPa | 0 mm | - | 13 W/m² | - |
| 1777892048 | 10.56° C | 76% | 1014.6 hPa | 0 mm | - | 12 W/m² | - |
| 1777891745 | 10.56° C | 75% | 1014.6 hPa | 0 mm | - | 12 W/m² | - |
| 1777891441 | 10.56° C | 75% | 1014.8 hPa | 0 mm | - | 13 W/m² | - |
| 1777891137 | 10.56° C | 75% | 1014.6 hPa | 0 mm | - | 15 W/m² | - |
| 1777890832 | 10.56° C | 76% | 1014.5 hPa | 0 mm | - | 14 W/m² | - |
| 1777890528 | 10.56° C | 75% | 1014.4 hPa | 0 mm | - | 12 W/m² | - |
| 1777890224 | 10° C | 75% | 1014.5 hPa | 0 mm | - | 9 W/m² | - |
| 1777889920 | 10° C | 76% | 1014.8 hPa | 0 mm | - | 4 W/m² | - |
| 1777889619 | 10° C | 76% | 1014.6 hPa | 0 mm | - | 3 W/m² | - |
| 1777889315 | 10° C | 76% | 1014.6 hPa | 0 mm | - | 0 W/m² | - |
| 1777889012 | 10° C | 76% | 1014.6 hPa | 0 mm | - | 0 W/m² | - |
| 1777888710 | 10° C | 76% | 1014.9 hPa | 0 mm | - | 0 W/m² | - |
| 1777888405 | 10° C | 76% | 1014.9 hPa | 0 mm | - | 0 W/m² | - |
| 1777888102 | 10° C | 77% | 1014.5 hPa | 0 mm | - | 0 W/m² | - |
| 1777887800 | 9.44° C | 79% | 1014.8 hPa | 0 mm | - | 0 W/m² | - |
| 1777887496 | 9.44° C | 81% | 1014.7 hPa | 0 mm | - | 0 W/m² | - |
| 1777887192 | 9.44° C | 82% | 1014.7 hPa | 0 mm | - | 0 W/m² | - |
| 1777886888 | 9.44° C | 81% | 1014.8 hPa | 0 mm | - | 0 W/m² | - |
* Rain latest hour (hover to see other rain measurements)
** Current wind speed in m/s (hover to see current wind gust speed)